This is the latest recevied weather packets stored in our database for station/object KB3AWQ. If no packets are shown the sender has not sent any weather packets the latest 10 day(s).
| Time | Temp. | Humidity | Pressure | Rain* | Wind** | Luminosity | Snow |
|---|---|---|---|---|---|---|---|
| 1788098067 | 20.56° C | 80% | 1021.7 hPa | 0 mm | - | 573 W/m² | - |
| 1788097767 | 20.56° C | 83% | 1021.7 hPa | 0 mm | - | 546 W/m² | - |
| 1788097466 | 20.56° C | 83% | 1021.6 hPa | 0 mm | - | 366 W/m² | - |
| 1788097166 | 20.56° C | 80% | 1021.8 hPa | 0 mm | - | 314 W/m² | - |
| 1788096866 | 20° C | 82% | 1022 hPa | 0 mm | - | 346 W/m² | - |
| 1788096566 | 20° C | 81% | 1022 hPa | 0 mm | - | 197 W/m² | - |
| 1788096266 | 20° C | 82% | 1022 hPa | 0 mm | - | 314 W/m² | - |
| 1788095966 | 19.44° C | 83% | 1022 hPa | 0 mm | - | 237 W/m² | - |
| 1788095666 | 20° C | 82% | 1022 hPa | 0 mm | - | 263 W/m² | - |
| 1788095367 | 20° C | 83% | 1022 hPa | 0 mm | - | 254 W/m² | - |
| 1788095066 | 19.44° C | 81% | 1022.1 hPa | 0 mm | - | 481 W/m² | - |
| 1788094767 | 18.89° C | 87% | 1022 hPa | 0 mm | - | 431 W/m² | - |
| 1788094466 | 18.89° C | 86% | 1022 hPa | 0 mm | - | 192 W/m² | - |
| 1788094167 | 18.33° C | 86% | 1021.9 hPa | 0 mm | - | 243 W/m² | - |
| 1788093868 | 18.33° C | 88% | 1021.9 hPa | 0 mm | - | 356 W/m² | - |
| 1788093566 | 18.33° C | 88% | 1022 hPa | 0 mm | - | 267 W/m² | - |
| 1788093267 | 18.33° C | 88% | 1022 hPa | 0 mm | - | 212 W/m² | - |
| 1788092967 | 18.33° C | 88% | 1022.1 hPa | 0 mm | - | 272 W/m² | - |
| 1788092668 | 17.78° C | 91% | 1022.2 hPa | 0 mm | - | 299 W/m² | - |
| 1788092366 | 17.22° C | 93% | 1022.2 hPa | 0 mm | - | 292 W/m² | - |
| 1788092066 | 17.22° C | 93% | 1022.2 hPa | 0 mm | - | 149 W/m² | - |
| 1788091766 | 16.67° C | 94% | 1022.1 hPa | 0 mm | - | 92 W/m² | - |
| 1788091468 | 16.67° C | 92% | 1022.1 hPa | 0 mm | - | 113 W/m² | - |
| 1788091166 | 16.67° C | 93% | 1022.1 hPa | 0 mm | - | 101 W/m² | - |
| 1788090866 | 16.67° C | 93% | 1022.1 hPa | 0 mm | - | 103 W/m² | - |
* Rain latest hour (hover to see other rain measurements)
** Current wind speed in m/s (hover to see current wind gust speed)